NOAA NWS Hourly Roundups by Site

Regional Weather Roundup for Omaha, NE

To Select Another Site Choose from List

Select Site:  

000
ASUS43 KOAX 280010
RWRNE

WEATHER ROUNDUP FOR NEBRASKA
NATIONAL WEATHER SERVICE OMAHA NE
700 PM CDT TUE JUL 27 2021

NOTES: SATELLITE DATA IS BEING USED TO AUGMENT CLOUD COVER ABOVE
       12000 FEET.
       "FAIR" INDICATES FEW OR NO CLOUDS BELOW 12,000 FEET WITH NO
       SIGNIFICANT WEATHER AND/OR OBSTRUCTIONS TO VISIBILITY.


NEZ001>004-019>022-054>056-280100-
NEBRASKA PANHANDLE

CITY           SKY/WX    TMP DP  RH WIND       PRES   REMARKS
SCOTTSBLUFF    SUNNY     98  47  17 SE15G22   30.04F HX  94
6HR MIN TEMP:  95; 6HR MAX TEMP: 101;

ALLIANCE       SUNNY     97  43  15 SE16G25   30.06F HX  93
6HR MIN TEMP:  95; 6HR MAX TEMP: 100;

CHADRON        SUNNY    100  39  12 S16G28    29.99S HX  95
6HR MIN TEMP: 100; 6HR MAX TEMP: 105;

GORDON         SUNNY     98  47  17 S14       30.03F HX  94
6HR MIN TEMP:  94; 6HR MAX TEMP: 101;

KIMBALL        SUNNY     94  41  16 SE15      30.14F
SIDNEY         SUNNY     94  50  22 SE16G23   30.10S HX  91
6HR MIN TEMP:  92; 6HR MAX TEMP:  98;

$$

NEZ057>060-069>072-079>082-280100-
SOUTHWEST NEBRASKA

CITY           SKY/WX    TMP DP  RH WIND       PRES   REMARKS
NORTH PLATTE   SUNNY     94  66  39 SE5       30.03F HX  97
6HR MIN TEMP:  93; 6HR MAX TEMP:  97;

IMPERIAL       SUNNY     94  60  32 SE12G23   30.05F HX  94
6HR MIN TEMP:  93; 6HR MAX TEMP:  98;

LEXINGTON      MOSUNNY   91  71  52 S8        30.04F HAZE    HX  97
MCCOOK         SUNNY     94  63  35 SE9       30.03F HX  95
6HR MIN TEMP:  92; 6HR MAX TEMP:  98;

OGALLALA       SUNNY     96  56  25 SE12      30.05F HX  95
$$

NEZ005>010-023>029-035>040-094-280100-
NORTH CENTRAL NEBRASKA

CITY           SKY/WX    TMP DP  RH WIND       PRES   REMARKS
VALENTINE      SUNNY     99  62  29 S13       29.99S HX 100
6HR MIN TEMP:  98; 6HR MAX TEMP: 102;

AINSWORTH      SUNNY     92  62  35 S10       30.01F HX  92
BROKEN BOW     SUNNY     88  69  53 S13       30.04F HX  92
6HR MIN TEMP:  88; 6HR MAX TEMP:  93;

O`NEILL        SUNNY     96  62  32 S10G16    30.00S HX  97
ORD            SUNNY     92  67  43 S12       30.00S HX  95
6HR MIN TEMP:  92; 6HR MAX TEMP:  97;

THEDFORD       SUNNY     94  60  31 S13       30.05S HX  94
$$

NEZ041-046>049-061>064-073>077-083>087-280100-
SOUTH CENTRAL NEBRASKA

CITY           SKY/WX    TMP DP  RH WIND       PRES   REMARKS
GRAND ISLAND   SUNNY     93  70  46 SW9       30.03S HX  99
6HR MIN TEMP:  93; 6HR MAX TEMP:  96;

AURORA         SUNNY     91  75  60 S7        30.02F HX 101
HASTINGS       SUNNY     91  72  53 VRB6      30.04F HX  98
6HR MIN TEMP:  88; 6HR MAX TEMP:  92;

HEBRON         SUNNY     91  72  54 S5        30.01F HX  98
HOLDREGE       SUNNY     89  74  60 SE5       30.04F HX  98
KEARNEY        SUNNY     89  75  63 S7        30.04F HX  99
YORK           SUNNY     88  77  70 S6        30.02S HX 100
$$

NEZ011>018-030>034-042>045-280100-
NORTHEAST NEBRASKA

CITY           SKY/WX    TMP DP  RH WIND       PRES   REMARKS
NORFOLK        SUNNY     94  71  47 SW10      29.98S HX 101
6HR MIN TEMP:  93; 6HR MAX TEMP:  98;

ALBION         SUNNY     91  75  59 S7        30.01S HX 101
BLAIR          SUNNY     90  76  63 S7        30.00S HX 101
COLUMBUS       SUNNY     91  75  59 S13       30.01S HX 101
FREMONT        SUNNY     93  76  57 SW7       30.00S HX 104
TEKAMAH        SUNNY     92  76  59 SW9       29.97S HX 104
6HR MIN TEMP:  91; 6HR MAX TEMP:  96;

WAYNE          SUNNY     92  76  58 SW9       29.98S HX 103
$$

NEZ050>053-065>068-078-088>093-280100-
SOUTHEAST NEBRASKA

CITY           SKY/WX    TMP DP  RH WIND       PRES   REMARKS
LINCOLN        SUNNY     93  71  48 S10       30.00S HX 100
6HR MIN TEMP:  92; 6HR MAX TEMP:  96;

OMAHA EPPLEY   SUNNY     94  73  50 S12       29.97S HX 103
6HR MIN TEMP:  92; 6HR MAX TEMP:  97;

BEATRICE       SUNNY     91  73  54 S8        30.01F HX  99
FALLS CITY     SUNNY     90  76  63 SE5       29.99F HX 101
6HR MIN TEMP:  89; 6HR MAX TEMP:  93;

NEBRASKA CITY  SUNNY     90  77  65 S8        30.00F HX 102
PLATTSMOUTH    SUNNY     90  77  66 S6        30.00S HX 103
$$

NEZ044-045-051>053-067-280100-
OMAHA AREA

CITY           SKY/WX    TMP DP  RH WIND       PRES   REMARKS
OMAHA EPPLEY   SUNNY     94  73  50 S12       29.97S HX 103
6HR MIN TEMP:  92; 6HR MAX TEMP:  97;

BLAIR          SUNNY     90  76  63 S7        30.00S HX 101
FREMONT        SUNNY     93  76  57 SW7       30.00S HX 104
MILLARD        SUNNY     93  74  54 S6        29.99S HX 103
OFFUTT AFB     SUNNY     93  74  54 SW7       30.00F HX 103
PLATTSMOUTH    SUNNY     90  77  66 S6        30.00S HX 103
WAHOO          SUNNY     92  73  53 S6        29.99S HX 101
$$


 

View Past Reports for Omaha, NE.

Products Courtesy of NOAA-NWS
NWS Information Parsing Script by Ken True at Saratoga Weather - Script by SE Lincoln Weather.